| time (UTC) | temp F | wind direction | speed MPH | gust MPH | rain 1hr in | rain 24hr in | rain mn in | humidity % | barometer mb |
| 20260904192041 | 87 | 228 | 3.0 | 10.0 | 0.00 | 0.39 | 0.39 | 63 | 1011.2 |
| 20260904191544 | 87 | 291 | 4.0 | 10.0 | 0.00 | 0.39 | 0.39 | 63 | 1011.2 |
| 20260904191037 | 87 | 273 | 4.0 | 10.0 | 0.00 | 0.39 | 0.39 | 63 | 1011.3 |
| 20260904190536 | 87 | 234 | 5.0 | 14.0 | 0.00 | 0.39 | 0.39 | 62 | 1011.3 |
| 20260904190039 | 87 | 283 | 7.0 | 14.0 | 0.00 | 0.39 | 0.39 | 62 | 1011.2 |
| 20260904185535 | 87 | 272 | 6.0 | 12.0 | 0.00 | 0.39 | 0.39 | 60 | 1011.2 |
| 20260904185035 | 87 | 217 | 6.0 | 12.0 | 0.00 | 0.39 | 0.39 | 61 | 1011.3 |
| 20260904184534 | 87 | 197 | 6.0 | 12.0 | 0.00 | 0.39 | 0.39 | 61 | 1011.3 |
| 20260904184035 | 88 | 248 | 5.0 | 11.0 | 0.00 | 0.39 | 0.39 | 60 | 1011.3 |
| 20260904183534 | 88 | 224 | 2.0 | 11.0 | 0.00 | 0.39 | 0.39 | 58 | 1011.3 |
| 20260904183035 | 88 | 294 | 2.0 | 12.0 | 0.00 | 0.39 | 0.39 | 59 | 1011.4 |
| 20260904182535 | 88 | 257 | 3.0 | 12.0 | 0.00 | 0.39 | 0.39 | 55 | 1011.5 |
| 20260904182037 | 88 | 227 | 4.0 | 9.0 | 0.00 | 0.39 | 0.39 | 56 | 1011.5 |
| 20260904181532 | 88 | 272 | 1.0 | 13.0 | 0.00 | 0.39 | 0.39 | 58 | 1011.7 |
| 20260904181033 | 87 | 87 | 4.0 | 11.0 | 0.00 | 0.39 | 0.39 | 62 | 1011.5 |
| 20260904180530 | 87 | 218 | 6.0 | 13.0 | 0.00 | 0.39 | 0.39 | 61 | 1011.6 |
| 20260904180030 | 87 | 220 | 6.0 | 13.0 | 0.00 | 0.39 | 0.39 | 63 | 1011.4 |
| 20260904175529 | 87 | 207 | 3.0 | 11.0 | 0.00 | 0.39 | 0.39 | 62 | 1011.5 |
| 20260904175029 | 87 | 245 | 5.0 | 10.0 | 0.00 | 0.39 | 0.39 | 63 | 1011.5 |
| 20260904174530 | 87 | 234 | 1.0 | 7.0 | 0.00 | 0.39 | 0.39 | 64 | 1011.5 |
| 20260904174027 | 87 | 240 | 2.0 | 6.0 | 0.00 | 0.39 | 0.39 | 61 | 1011.5 |
| 20260904173529 | 86 | 257 | 3.0 | 5.0 | 0.00 | 0.39 | 0.39 | 61 | 1011.7 |
| 20260904173028 | 86 | 285 | 2.0 | 9.0 | 0.00 | 0.39 | 0.39 | 61 | 1011.6 |
| 20260904172528 | 87 | 265 | 3.0 | 9.0 | 0.00 | 0.39 | 0.39 | 60 | 1011.6 |
| 20260904172027 | 87 | 298 | 3.0 | 7.0 | 0.00 | 0.39 | 0.39 | 59 | 1011.6 |
| 20260904171551 | 87 | 47 | 2.0 | 9.0 | 0.00 | 0.39 | 0.39 | 62 | 1011.7 |
| 20260904171026 | 87 | 315 | 1.0 | 9.0 | 0.00 | 0.39 | 0.39 | 61 | 1011.7 |
| 20260904170530 | 88 | 246 | 2.0 | 6.0 | 0.00 | 0.39 | 0.39 | 61 | 1011.7 |
| 20260904170024 | 87 | 355 | 2.0 | 8.0 | 0.00 | 0.39 | 0.39 | 60 | 1011.7 |
| 20260904165528 | 87 | 253 | 1.0 | 8.0 | 0.00 | 0.39 | 0.39 | 61 | 1011.7 |
| 20260904165023 | 87 | 294 | 0.0 | 4.0 | 0.00 | 0.39 | 0.39 | 61 | 1011.7 |
| 20260904164523 | 87 | 57 | 1.0 | 4.0 | 0.00 | 0.39 | 0.39 | 61 | 1011.7 |
| 20260904164022 | 87 | 292 | 2.0 | 8.0 | 0.00 | 0.39 | 0.39 | 60 | 1011.7 |
| 20260904163522 | 86 | 360 | 3.0 | 8.0 | 0.00 | 0.39 | 0.39 | 61 | 1011.7 |
| 20260904163039 | 87 | 302 | 2.0 | 5.0 | 0.00 | 0.39 | 0.39 | 61 | 1011.7 |
| 20260904162521 | 87 | 40 | 2.0 | 5.0 | 0.00 | 0.39 | 0.39 | 61 | 1011.9 |
| 20260904162024 | 87 | 334 | 1.0 | 7.0 | 0.00 | 0.39 | 0.39 | 62 | 1011.7 |
| 20260904161520 | 86 | 279 | 1.0 | 6.0 | 0.00 | 0.39 | 0.39 | 63 | 1011.7 |
| 20260904161019 | 87 | 211 | 1.0 | 5.0 | 0.00 | 0.39 | 0.39 | 62 | 1011.8 |
| 20260904160521 | 87 | 30 | 1.0 | 7.0 | 0.00 | 0.39 | 0.39 | 63 | 1011.9 |
| 20260904160017 | 86 | 82 | 1.0 | 7.0 | 0.00 | 0.39 | 0.39 | 64 | 1011.9 |
| 20260904155517 | 86 | 100 | 2.0 | 4.0 | 0.00 | 0.39 | 0.39 | 63 | 1012.0 |
| 20260904155015 | 86 | 318 | 1.0 | 5.0 | 0.00 | 0.39 | 0.39 | 65 | 1012.0 |
| 20260904154517 | 86 | 5 | 0.0 | 5.0 | 0.00 | 0.39 | 0.39 | 66 | 1012.0 |
| 20260904154013 | 85 | 61 | 1.0 | 5.0 | 0.00 | 0.39 | 0.39 | 67 | 1011.9 |
| 20260904153511 | 84 | 355 | 2.0 | 7.0 | 0.00 | 0.39 | 0.39 | 66 | 1012.0 |
| 20260904153011 | 84 | 267 | 1.0 | 9.0 | 0.00 | 0.39 | 0.39 | 68 | 1012.0 |
| 20260904152511 | 84 | 264 | 2.0 | 9.0 | 0.00 | 0.39 | 0.39 | 67 | 1012.1 |
| 20260904152010 | 84 | 350 | 3.0 | 6.0 | 0.00 | 0.39 | 0.39 | 66 | 1012.1 |
| 20260904151526 | 84 | 355 | 1.0 | 5.0 | 0.00 | 0.39 | 0.39 | 67 | 1012.1 |
| 20260904151010 | 84 | 38 | 1.0 | 8.0 | 0.00 | 0.39 | 0.39 | 69 | 1012.1 |
| 20260904150507 | 83 | 5 | 2.0 | 9.0 | 0.00 | 0.39 | 0.39 | 69 | 1012.1 |
| 20260904150006 | 83 | 15 | 2.0 | 9.0 | 0.00 | 0.39 | 0.39 | 70 | 1012.1 |
| 20260904145507 | 83 | 246 | 2.0 | 9.0 | 0.00 | 0.39 | 0.39 | 69 | 1012.1 |
| 20260904145005 | 83 | 348 | 2.0 | 9.0 | 0.00 | 0.39 | 0.39 | 70 | 1012.0 |
| 20260904144506 | 82 | 52 | 2.0 | 9.0 | 0.00 | 0.39 | 0.39 | 70 | 1012.1 |
| 20260904144004 | 83 | 297 | 0.0 | 8.0 | 0.00 | 0.39 | 0.39 | 71 | 1012.0 |
| 20260904143503 | 82 | 298 | 2.0 | 6.0 | 0.00 | 0.39 | 0.39 | 70 | 1012.0 |
| 20260904143002 | 82 | 331 | 2.0 | 7.0 | 0.00 | 0.39 | 0.39 | 72 | 1011.9 |
| 20260904142502 | 82 | 225 | 1.0 | 10.0 | 0.00 | 0.39 | 0.39 | 72 | 1011.9 |
| 20260904142101 | 82 | 311 | 3.0 | 8.0 | 0.00 | 0.39 | 0.39 | 72 | 1011.9 |
| 20260904141559 | 82 | 325 | 2.0 | 6.0 | 0.00 | 0.39 | 0.39 | 72 | 1011.9 |
| 20260904141058 | 81 | 192 | 2.0 | 6.0 | 0.00 | 0.39 | 0.39 | 72 | 1012.0 |
| 20260904140557 | 81 | 10 | 1.0 | 8.0 | 0.00 | 0.39 | 0.39 | 73 | 1012.0 |
| 20260904140055 | 81 | 286 | 2.0 | 8.0 | 0.00 | 0.39 | 0.39 | 75 | 1011.9 |
| 20260904135555 | 80 | 277 | 2.0 | 8.0 | 0.00 | 0.39 | 0.39 | 75 | 1011.9 |
| 20260904135054 | 80 | 334 | 2.0 | 8.0 | 0.00 | 0.39 | 0.39 | 75 | 1011.9 |
| 20260904134557 | 80 | 58 | 2.0 | 11.0 | 0.00 | 0.39 | 0.39 | 75 | 1011.9 |
| 20260904134052 | 80 | 313 | 2.0 | 7.0 | 0.00 | 0.39 | 0.39 | 77 | 1011.8 |
| 20260904133550 | 80 | 360 | 2.0 | 8.0 | 0.00 | 0.39 | 0.39 | 77 | 1011.8 |
| 20260904133103 | 79 | 301 | 0.0 | 8.0 | 0.00 | 0.39 | 0.39 | 78 | 1011.8 |
| 20260904132550 | 79 | 319 | 1.0 | 9.0 | 0.00 | 0.39 | 0.39 | 79 | 1011.7 |
| 20260904132050 | 79 | 34 | 2.0 | 10.0 | 0.00 | 0.39 | 0.39 | 80 | 1011.8 |
| 20260904131549 | 79 | 341 | 2.0 | 10.0 | 0.00 | 0.39 | 0.39 | 79 | 1011.9 |
| 20260904131052 | 78 | 313 | 1.0 | 7.0 | 0.00 | 0.39 | 0.39 | 81 | 1011.9 |
| 20260904130551 | 78 | 315 | 2.0 | 9.0 | 0.00 | 0.39 | 0.39 | 81 | 1011.9 |
| 20260904130149 | 78 | 344 | 1.0 | 9.0 | 0.00 | 0.39 | 0.39 | 82 | 1011.9 |
| 20260904125548 | 78 | 327 | 3.0 | 9.0 | 0.00 | 0.42 | 0.39 | 81 | 1011.9 |
| 20260904125051 | 77 | 255 | 2.0 | 8.0 | 0.00 | 0.42 | 0.39 | 83 | 1012.1 |
| 20260904124547 | 77 | 288 | 2.0 | 5.0 | 0.00 | 0.42 | 0.39 | 83 | 1012.0 |
| 20260904124047 | 77 | 264 | 2.0 | 8.0 | 0.00 | 0.42 | 0.39 | 83 | 1011.8 |
| 20260904123547 | 77 | 339 | 1.0 | 10.0 | 0.00 | 0.42 | 0.39 | 84 | 1011.7 |
| 20260904123051 | 76 | 59 | 3.0 | 10.0 | 0.00 | 0.42 | 0.39 | 84 | 1011.9 |
| 20260904122547 | 76 | 261 | 3.0 | 6.0 | 0.00 | 0.42 | 0.39 | 86 | 1012.0 |
| 20260904122047 | 76 | 300 | 2.0 | 8.0 | 0.00 | 0.42 | 0.39 | 87 | 1012.0 |
| 20260904121547 | 75 | 31 | 3.0 | 10.0 | 0.00 | 0.42 | 0.39 | 88 | 1011.8 |
| 20260904121046 | 75 | 244 | 3.0 | 10.0 | 0.00 | 0.42 | 0.39 | 89 | 1011.9 |
| 20260904120546 | 74 | 239 | 2.0 | 10.0 | 0.00 | 0.42 | 0.39 | 89 | 1011.9 |
| 20260904120054 | 74 | 313 | 2.0 | 8.0 | 0.00 | 0.42 | 0.39 | 89 | 1012.0 |
| 20260904115546 | 74 | 294 | 2.0 | 8.0 | 0.00 | 0.44 | 0.39 | 89 | 1012.0 |
| 20260904115045 | 74 | 313 | 3.0 | 11.0 | 0.00 | 0.44 | 0.39 | 90 | 1011.9 |
| 20260904114549 | 74 | 300 | 2.0 | 8.0 | 0.00 | 0.44 | 0.39 | 90 | 1012.0 |
| 20260904114045 | 74 | 293 | 3.0 | 13.0 | 0.00 | 0.44 | 0.39 | 90 | 1012.0 |
| 20260904113545 | 74 | 217 | 3.0 | 13.0 | 0.00 | 0.44 | 0.39 | 91 | 1011.8 |
| 20260904113045 | 74 | 290 | 2.0 | 10.0 | 0.00 | 0.44 | 0.39 | 90 | 1011.8 |
| 20260904112544 | 74 | 269 | 2.0 | 9.0 | 0.00 | 0.44 | 0.39 | 90 | 1011.8 |
| 20260904112045 | 74 | 254 | 1.0 | 9.0 | 0.00 | 0.44 | 0.39 | 90 | 1011.8 |
| 20260904111543 | 74 | 245 | 3.0 | 9.0 | 0.00 | 0.44 | 0.39 | 90 | 1011.8 |
| 20260904111043 | 74 | 293 | 2.0 | 7.0 | 0.00 | 0.44 | 0.39 | 90 | 1011.6 |
| 20260904110543 | 74 | 291 | 4.0 | 8.0 | 0.00 | 0.44 | 0.39 | 90 | 1011.7 |
| 20260904110044 | 74 | 243 | 2.0 | 9.0 | 0.00 | 0.44 | 0.39 | 90 | 1011.6 |
| 20260904105544 | 74 | 306 | 3.0 | 11.0 | 0.00 | 0.48 | 0.39 | 90 | 1011.5 |
| 20260904105042 | 74 | 276 | 4.0 | 11.0 | 0.00 | 0.48 | 0.39 | 90 | 1011.4 |
| 20260904104544 | 74 | 306 | 2.0 | 8.0 | 0.00 | 0.48 | 0.39 | 90 | 1011.2 |
| 20260904104042 | 74 | 272 | 1.0 | 7.0 | 0.00 | 0.48 | 0.39 | 90 | 1011.1 |
| 20260904103545 | 74 | 189 | 2.0 | 7.0 | 0.00 | 0.48 | 0.39 | 90 | 1011.2 |
| 20260904103043 | 74 | 248 | 2.0 | 4.0 | 0.00 | 0.48 | 0.39 | 89 | 1011.1 |
| 20260904102541 | 74 | 256 | 1.0 | 10.0 | 0.00 | 0.48 | 0.39 | 89 | 1011.1 |
| 20260904102040 | 74 | 288 | 3.0 | 10.0 | 0.00 | 0.48 | 0.39 | 89 | 1011.2 |
| 20260904101541 | 74 | 276 | 4.0 | 10.0 | 0.00 | 0.48 | 0.39 | 89 | 1011.3 |
| 20260904101043 | 74 | 211 | 3.0 | 10.0 | 0.00 | 0.48 | 0.39 | 89 | 1011.3 |
| 20260904100542 | 75 | 245 | 4.0 | 10.0 | 0.00 | 0.48 | 0.39 | 89 | 1011.2 |
| 20260904100039 | 74 | 207 | 4.0 | 9.0 | 0.00 | 0.48 | 0.39 | 90 | 1011.3 |
| 20260904095539 | 74 | 194 | 2.0 | 10.0 | 0.00 | 0.74 | 0.39 | 90 | 1011.2 |
| 20260904095038 | 74 | 227 | 2.0 | 10.0 | 0.00 | 0.74 | 0.39 | 90 | 1011.3 |
| 20260904094538 | 74 | 285 | 3.0 | 8.0 | 0.00 | 0.74 | 0.39 | 90 | 1011.3 |
| 20260904094037 | 74 | 217 | 3.0 | 8.0 | 0.00 | 0.74 | 0.39 | 90 | 1011.3 |
| 20260904093538 | 75 | 263 | 4.0 | 9.0 | 0.00 | 0.74 | 0.39 | 90 | 1011.3 |
| 20260904093038 | 75 | 293 | 2.0 | 9.0 | 0.00 | 0.74 | 0.39 | 90 | 1011.3 |
| 20260904092537 | 75 | 271 | 3.0 | 8.0 | 0.00 | 0.74 | 0.39 | 89 | 1011.2 |
| 20260904092037 | 75 | 264 | 3.0 | 11.0 | 0.00 | 0.74 | 0.39 | 89 | 1011.2 |
| 20260904091538 | 75 | 265 | 3.0 | 9.0 | 0.00 | 0.74 | 0.39 | 89 | 1011.3 |
| 20260904091036 | 75 | 212 | 3.0 | 9.0 | 0.00 | 0.74 | 0.39 | 90 | 1011.5 |
| 20260904090535 | 75 | 277 | 2.0 | 10.0 | 0.00 | 0.74 | 0.39 | 90 | 1011.6 |
| 20260904090036 | 75 | 276 | 4.0 | 10.0 | 0.00 | 0.74 | 0.39 | 90 | 1011.4 |
| 20260904085536 | 76 | 261 | 3.0 | 10.0 | 0.00 | 0.78 | 0.39 | 89 | 1011.3 |
| 20260904085035 | 76 | 209 | 3.0 | 10.0 | 0.00 | 0.78 | 0.39 | 89 | 1011.5 |
| 20260904084536 | 76 | 259 | 3.0 | 9.0 | 0.00 | 0.78 | 0.39 | 89 | 1011.5 |
| 20260904084038 | 76 | 204 | 3.0 | 9.0 | 0.00 | 0.78 | 0.39 | 89 | 1011.5 |
| 20260904083536 | 76 | 218 | 4.0 | 10.0 | 0.00 | 0.78 | 0.39 | 89 | 1011.7 |
| 20260904083034 | 76 | 284 | 3.0 | 11.0 | 0.00 | 0.78 | 0.39 | 89 | 1011.9 |
| 20260904082534 | 76 | 250 | 3.0 | 13.0 | 0.00 | 0.78 | 0.39 | 89 | 1011.8 |
| 20260904082035 | 76 | 238 | 4.0 | 13.0 | 0.03 | 0.78 | 0.39 | 89 | 1012.0 |
| 20260904081535 | 75 | 232 | 5.0 | 11.0 | 0.17 | 0.78 | 0.39 | 90 | 1011.8 |
| 20260904081038 | 75 | 229 | 5.0 | 10.0 | 0.28 | 0.78 | 0.39 | 90 | 1011.8 |
| 20260904080534 | 75 | 233 | 3.0 | 14.0 | 0.37 | 0.78 | 0.39 | 90 | 1011.8 |
| 20260904080050 | 75 | 271 | 5.0 | 14.0 | 0.38 | 0.78 | 0.39 | 91 | 1011.9 |
| 20260904075534 | 75 | 280 | 5.0 | 10.0 | 0.38 | 1.00 | 0.39 | 91 | 1011.9 |
| 20260904075033 | 75 | 251 | 4.0 | 10.0 | 0.39 | 1.00 | 0.39 | 91 | 1011.9 |
| 20260904074532 | 75 | 271 | 5.0 | 10.0 | 0.39 | 1.00 | 0.39 | 91 | 1011.8 |
| 20260904074034 | 75 | 247 | 3.0 | 9.0 | 0.39 | 1.00 | 0.39 | 92 | 1012.0 |
| 20260904073533 | 75 | 244 | 3.0 | 9.0 | 0.39 | 1.00 | 0.39 | 92 | 1011.8 |
| 20260904073032 | 75 | 275 | 4.0 | 14.0 | 0.39 | 1.00 | 0.39 | 92 | 1011.8 |
| 20260904072531 | 74 | 234 | 5.0 | 15.0 | 0.39 | 1.00 | 0.39 | 91 | 1011.9 |
| 20260904072031 | 74 | 245 | 8.0 | 18.0 | 0.35 | 0.96 | 0.35 | 91 | 1012.0 |
| 20260904071533 | 75 | 242 | 7.0 | 18.0 | 0.21 | 0.82 | 0.21 | 90 | 1012.2 |
| 20260904071029 | 75 | 269 | 10.0 | 21.0 | 0.09 | 0.70 | 0.09 | 89 | 1012.2 |
| 20260904070529 | 76 | 248 | 11.0 | 21.0 | 0.02 | 0.63 | 0.02 | 87 | 1011.8 |
| 20260904070038 | 77 | 224 | 12.0 | 19.0 | 0.01 | 0.62 | 0.01 | 85 | 1011.8 |
| 20260904065524 | 78 | 238 | 9.0 | 13.0 | 0.01 | 1.01 | 0.01 | 81 | 1011.7 |
| 20260904065022 | 78 | 225 | 8.0 | 12.0 | 0.00 | 1.00 | 0.00 | 81 | 1011.4 |
| 20260904064523 | 78 | 193 | 6.0 | 12.0 | 0.00 | 1.00 | 0.00 | 83 | 1011.5 |
| 20260904064021 | 78 | 290 | 3.0 | 9.0 | 0.00 | 1.00 | 0.00 | 84 | 1011.6 |
| 20260904063521 | 78 | 258 | 3.0 | 16.0 | 0.00 | 1.00 | 0.00 | 83 | 1011.7 |
| 20260904063021 | 79 | 207 | 7.0 | 14.0 | 0.00 | 1.00 | 0.00 | 82 | 1011.8 |
| 20260904062519 | 79 | 216 | 8.0 | 14.0 | 0.00 | 1.00 | 0.00 | 88 | 1011.7 |
| 20260904062019 | 79 | 224 | 6.0 | 12.0 | 0.00 | 1.00 | 0.00 | 91 | 1011.6 |
| 20260904061518 | 79 | 244 | 5.0 | 12.0 | 0.00 | 1.00 | 0.00 | 91 | 1011.5 |
| 20260904061020 | 79 | 232 | 4.0 | 7.0 | 0.00 | 1.00 | 0.00 | 91 | 1011.3 |
| 20260904060517 | 79 | 244 | 3.0 | 7.0 | 0.00 | 1.00 | 0.00 | 91 | 1011.2 |
| 20260904060017 | 79 | 215 | 2.0 | 7.0 | 0.00 | 1.00 | 0.00 | 91 | 1011.2 |
| 20260904055516 | 79 | 295 | 1.0 | 5.0 | 0.00 | 1.00 | 0.00 | 91 | 1011.2 |
| 20260904055014 | 79 | 232 | 2.0 | 5.0 | 0.00 | 1.00 | 0.00 | 92 | 1011.3 |
| 20260904054528 | 79 | 274 | 1.0 | 6.0 | 0.00 | 1.00 | 0.00 | 92 | 1011.4 |
| 20260904054014 | 79 | 292 | 1.0 | 6.0 | 0.00 | 1.00 | 0.00 | 91 | 1011.4 |
| 20260904053513 | 79 | 215 | 1.0 | 3.0 | 0.00 | 1.00 | 0.00 | 91 | 1011.3 |
| 20260904053018 | 78 | 209 | 1.0 | 3.0 | 0.00 | 1.00 | 0.00 | 91 | 1011.3 |
| 20260904052515 | 78 | 243 | 0.0 | 2.0 | 0.00 | 1.00 | 0.00 | 91 | 1011.5 |
| 20260904052015 | 78 | 243 | 0.0 | 2.0 | 0.00 | 1.00 | 0.00 | 90 | 1011.4 |
| 20260904051514 | 78 | 243 | 0.0 | 3.0 | 0.00 | 1.00 | 0.00 | 90 | 1011.4 |
| 20260904051015 | 78 | 223 | 1.0 | 3.0 | 0.00 | 1.00 | 0.00 | 90 | 1011.6 |
| 20260904050512 | 78 | 227 | 1.0 | 3.0 | 0.00 | 1.00 | 0.00 | 91 | 1011.5 |
| 20260904050012 | 78 | 223 | 2.0 | 3.0 | 0.00 | 1.00 | 0.00 | 91 | 1011.8 |
| 20260904045512 | 78 | 215 | 0.0 | 1.0 | 0.00 | 1.00 | 0.00 | 90 | 1012.1 |
| 20260904045012 | 78 | 215 | 0.0 | 1.0 | 0.00 | 1.00 | 0.00 | 90 | 1012.0 |
| 20260904044513 | 78 | 215 | 0.0 | 1.0 | 0.00 | 1.00 | 0.00 | 90 | 1011.8 |
| 20260904044011 | 78 | 163 | 0.0 | 2.0 | 0.00 | 1.00 | 0.00 | 90 | 1011.4 |
| 20260904043511 | 78 | 163 | 0.0 | 2.0 | 0.00 | 1.00 | 0.00 | 89 | 1011.2 |
| 20260904043010 | 78 | 163 | 1.0 | 3.0 | 0.00 | 1.00 | 0.00 | 90 | 1011.3 |
| 20260904042509 | 78 | 233 | 1.0 | 5.0 | 0.00 | 1.00 | 0.00 | 90 | 1011.8 |
| 20260904042008 | 78 | 252 | 2.0 | 5.0 | 0.00 | 1.00 | 0.00 | 90 | 1012.1 |
| 20260904041506 | 78 | 291 | 1.0 | 6.0 | 0.00 | 1.00 | 0.00 | 91 | 1012.1 |
| 20260904041004 | 78 | 259 | 1.0 | 4.0 | 0.00 | 1.00 | 0.00 | 91 | 1012.2 |
| 20260904040503 | 78 | 225 | 0.0 | 2.0 | 0.00 | 1.00 | 0.00 | 91 | 1012.2 |
| 20260904040005 | 78 | 215 | 0.0 | 3.0 | 0.00 | 1.00 | 0.00 | 91 | 1012.3 |
| 20260904035502 | 78 | 237 | 0.0 | 4.0 | 0.00 | 1.00 | 1.00 | 91 | 1012.5 |
| 20260904035004 | 78 | 218 | 1.0 | 4.0 | 0.00 | 1.00 | 1.00 | 91 | 1012.5 |
| 20260904034502 | 78 | 241 | 1.0 | 3.0 | 0.00 | 1.00 | 1.00 | 90 | 1012.7 |
| 20260904034001 | 78 | 240 | 1.0 | 3.0 | 0.00 | 1.00 | 1.00 | 90 | 1012.8 |
| 20260904033501 | 78 | 236 | 1.0 | 3.0 | 0.00 | 1.00 | 1.00 | 90 | 1012.7 |
| 20260904033101 | 78 | 259 | 0.0 | 3.0 | 0.00 | 1.00 | 1.00 | 90 | 1012.8 |
| 20260904032600 | 78 | 258 | 1.0 | 4.0 | 0.00 | 1.00 | 1.00 | 90 | 1012.8 |
| 20260904032103 | 78 | 224 | 1.0 | 4.0 | 0.00 | 1.00 | 1.00 | 90 | 1013.0 |
| 20260904031602 | 78 | 252 | 0.0 | 4.0 | 0.00 | 1.00 | 1.00 | 90 | 1013.0 |
| 20260904031100 | 78 | 231 | 1.0 | 3.0 | 0.00 | 1.00 | 1.00 | 90 | 1012.9 |
| 20260904030604 | 77 | 227 | 0.0 | 3.0 | 0.00 | 1.00 | 1.00 | 90 | 1012.9 |
| 20260904025600 | 77 | 223 | 1.0 | 3.0 | 0.00 | 1.00 | 1.00 | 90 | 1012.6 |
| 20260904025100 | 77 | 234 | 0.0 | 3.0 | 0.00 | 1.00 | 1.00 | 90 | 1012.6 |
| 20260904024600 | 77 | 268 | 0.0 | 1.0 | 0.00 | 1.00 | 1.00 | 89 | 1012.6 |
| 20260904024059 | 77 | 268 | 0.0 | 0.0 | 0.00 | 1.00 | 1.00 | 89 | 1012.5 |
| 20260904023600 | 77 | 268 | 0.0 | 0.0 | 0.00 | 1.00 | 1.00 | 89 | 1012.6 |
| 20260904023058 | 77 | 268 | 0.0 | 0.0 | 0.00 | 1.00 | 1.00 | 88 | 1012.5 |
| 20260904022557 | 77 | 268 | 0.0 | 0.0 | 0.00 | 1.00 | 1.00 | 88 | 1012.5 |
| 20260904022057 | 77 | 268 | 0.0 | 0.0 | 0.00 | 1.00 | 1.00 | 88 | 1012.7 |
| 20260904021601 | 77 | 268 | 0.0 | 1.0 | 0.00 | 1.00 | 1.00 | 87 | 1012.7 |
| 20260904021056 | 77 | 268 | 0.0 | 1.0 | 0.00 | 1.00 | 1.00 | 87 | 1012.8 |
| 20260904020554 | 77 | 268 | 0.0 | 1.0 | 0.00 | 1.00 | 1.00 | 87 | 1012.9 |
| 20260904020055 | 78 | 268 | 0.0 | 1.0 | 0.00 | 1.00 | 1.00 | 86 | 1013.0 |
| 20260904015551 | 78 | 268 | 0.0 | 1.0 | 0.00 | 1.00 | 1.00 | 86 | 1013.1 |
| 20260904015055 | 78 | 274 | 0.0 | 1.0 | 0.00 | 1.00 | 1.00 | 86 | 1013.2 |
| 20260904014602 | 78 | 215 | 0.0 | 1.0 | 0.00 | 1.00 | 1.00 | 86 | 1013.3 |
| 20260904014048 | 78 | 215 | 0.0 | 1.0 | 0.00 | 1.00 | 1.00 | 86 | 1013.3 |
| 20260904013550 | 78 | 215 | 0.0 | 0.0 | 0.00 | 1.00 | 1.00 | 85 | 1013.3 |
| 20260904013112 | 78 | 215 | 0.0 | 1.0 | 0.00 | 1.00 | 1.00 | 85 | 1013.3 |
| 20260904012551 | 78 | 215 | 0.0 | 2.0 | 0.00 | 1.00 | 1.00 | 84 | 1013.3 |
| 20260904012048 | 78 | 215 | 0.0 | 2.0 | 0.00 | 1.00 | 1.00 | 84 | 1013.4 |
| 20260904011609 | 79 | 254 | 0.0 | 2.0 | 0.00 | 1.00 | 1.00 | 83 | 1013.4 |
| 20260904011045 | 79 | 331 | 0.0 | 2.0 | 0.00 | 1.00 | 1.00 | 83 | 1013.4 |
| 20260904010545 | 79 | 300 | 0.0 | 1.0 | 0.00 | 1.00 | 1.00 | 83 | 1013.4 |
| 20260904010045 | 79 | 300 | 0.0 | 3.0 | 0.00 | 1.00 | 1.00 | 83 | 1013.4 |
| 20260904005548 | 79 | 355 | 0.0 | 3.0 | 0.00 | 1.00 | 1.00 | 82 | 1013.5 |
| 20260904005044 | 79 | 327 | 1.0 | 2.0 | 0.00 | 1.00 | 1.00 | 82 | 1013.6 |
| 20260904004544 | 79 | 318 | 0.0 | 1.0 | 0.00 | 1.00 | 1.00 | 82 | 1013.7 |
| 20260904004046 | 79 | 318 | 0.0 | 1.0 | 0.00 | 1.00 | 1.00 | 81 | 1013.5 |
| 20260904003544 | 79 | 318 | 0.0 | 2.0 | 0.00 | 1.00 | 1.00 | 81 | 1013.3 |
| 20260904003043 | 80 | 318 | 0.0 | 2.0 | 0.00 | 1.00 | 1.00 | 80 | 1013.2 |
| 20260904002543 | 80 | 265 | 0.0 | 2.0 | 0.00 | 1.00 | 1.00 | 80 | 1013.2 |
| 20260904002042 | 80 | 277 | 0.0 | 2.0 | 0.00 | 1.00 | 1.00 | 80 | 1013.1 |
| 20260904001544 | 80 | 15 | 0.0 | 2.0 | 0.00 | 1.00 | 1.00 | 80 | 1013.1 |
| 20260904001044 | 80 | 360 | 0.0 | 4.0 | 0.00 | 1.00 | 1.00 | 80 | 1013.0 |
| 20260904000544 | 80 | 276 | 1.0 | 4.0 | 0.00 | 1.00 | 1.00 | 80 | 1012.9 |
| 20260904000042 | 80 | 280 | 1.0 | 4.0 | 0.00 | 1.00 | 1.00 | 80 | 1012.8 |
| 20260903235545 | 80 | 294 | 0.0 | 4.0 | 0.00 | 1.00 | 1.00 | 80 | 1012.8 |
| 20260903235042 | 81 | 272 | 1.0 | 3.0 | 0.00 | 1.00 | 1.00 | 79 | 1012.7 |
| 20260903234541 | 81 | 297 | 0.0 | 3.0 | 0.00 | 1.00 | 1.00 | 79 | 1012.7 |
| 20260903234041 | 81 | 287 | 1.0 | 3.0 | 0.00 | 1.00 | 1.00 | 79 | 1012.7 |
| 20260903233541 | 81 | 228 | 0.0 | 1.0 | 0.00 | 1.00 | 1.00 | 78 | 1012.7 |
| 20260903233041 | 81 | 277 | 0.0 | 2.0 | 0.00 | 1.00 | 1.00 | 78 | 1012.6 |
| 20260903232540 | 81 | 292 | 0.0 | 4.0 | 0.00 | 1.00 | 1.00 | 77 | 1012.6 |
| 20260903232040 | 82 | 300 | 0.0 | 4.0 | 0.00 | 1.00 | 1.00 | 77 | 1012.4 |
| 20260903231545 | 82 | 284 | 0.0 | 3.0 | 0.00 | 1.00 | 1.00 | 77 | 1012.6 |
| 20260903231039 | 82 | 259 | 1.0 | 4.0 | 0.00 | 1.00 | 1.00 | 77 | 1012.6 |
| 20260903230539 | 82 | 263 | 1.0 | 4.0 | 0.00 | 1.00 | 1.00 | 77 | 1012.7 |
| 20260903230039 | 83 | 233 | 1.0 | 6.0 | 0.00 | 1.00 | 1.00 | 77 | 1012.5 |
| 20260903225539 | 83 | 227 | 2.0 | 6.0 | 0.00 | 1.00 | 1.00 | 76 | 1012.4 |
| 20260903225039 | 83 | 239 | 1.0 | 7.0 | 0.00 | 1.00 | 1.00 | 76 | 1012.3 |
| 20260903224540 | 83 | 217 | 2.0 | 7.0 | 0.00 | 1.00 | 1.00 | 75 | 1012.3 |
| 20260903224038 | 83 | 239 | 2.0 | 6.0 | 0.00 | 1.00 | 1.00 | 77 | 1012.3 |
| 20260903223538 | 84 | 239 | 2.0 | 7.0 | 0.00 | 1.00 | 1.00 | 77 | 1012.3 |
| 20260903223040 | 84 | 222 | 2.0 | 7.0 | 0.00 | 1.00 | 1.00 | 77 | 1012.3 |
| 20260903222537 | 84 | 254 | 3.0 | 7.0 | 0.00 | 1.00 | 1.00 | 77 | 1012.3 |
| 20260903222038 | 84 | 225 | 2.0 | 5.0 | 0.00 | 1.00 | 1.00 | 78 | 1012.3 |
| 20260903221537 | 84 | 251 | 3.0 | 8.0 | 0.00 | 1.00 | 1.00 | 78 | 1012.4 |
| 20260903221037 | 84 | 239 | 3.0 | 8.0 | 0.00 | 1.00 | 1.00 | 78 | 1012.3 |
| 20260903220537 | 84 | 237 | 2.0 | 8.0 | 0.00 | 1.00 | 1.00 | 78 | 1012.3 |
| 20260903220043 | 84 | 227 | 3.0 | 8.0 | 0.00 | 1.00 | 1.00 | 78 | 1012.3 |
| 20260903215536 | 84 | 248 | 3.0 | 9.0 | 0.00 | 1.00 | 1.00 | 77 | 1012.2 |
| 20260903215035 | 84 | 259 | 2.0 | 9.0 | 0.00 | 1.00 | 1.00 | 76 | 1012.3 |
| 20260903214535 | 85 | 255 | 3.0 | 8.0 | 0.00 | 1.00 | 1.00 | 75 | 1012.4 |
| 20260903214035 | 85 | 245 | 2.0 | 8.0 | 0.00 | 1.00 | 1.00 | 75 | 1012.3 |
| 20260903213534 | 85 | 248 | 4.0 | 8.0 | 0.00 | 1.00 | 1.00 | 76 | 1012.3 |
| 20260903213033 | 85 | 209 | 3.0 | 9.0 | 0.00 | 1.00 | 1.00 | 76 | 1012.4 |
| 20260903212532 | 84 | 257 | 5.0 | 8.0 | 0.00 | 1.00 | 1.00 | 76 | 1012.4 |
| 20260903212032 | 84 | 301 | 2.0 | 9.0 | 0.00 | 1.00 | 1.00 | 78 | 1012.4 |
| 20260903211543 | 84 | 256 | 3.0 | 9.0 | 0.00 | 1.00 | 1.00 | 77 | 1012.5 |
| 20260903211032 | 84 | 252 | 4.0 | 10.0 | 0.00 | 1.00 | 1.00 | 77 | 1012.6 |
| 20260903210531 | 84 | 242 | 4.0 | 10.0 | 0.00 | 1.00 | 1.00 | 77 | 1012.6 |
| 20260903210031 | 84 | 281 | 4.0 | 10.0 | 0.00 | 1.00 | 1.00 | 77 | 1012.6 |
| 20260903205531 | 84 | 208 | 4.0 | 9.0 | 0.00 | 1.00 | 1.00 | 77 | 1012.6 |
| 20260903205029 | 84 | 225 | 4.0 | 11.0 | 0.00 | 1.00 | 1.00 | 77 | 1012.6 |
| 20260903204528 | 84 | 213 | 5.0 | 12.0 | 0.00 | 1.00 | 1.00 | 76 | 1012.7 |
| 20260903204028 | 84 | 239 | 4.0 | 12.0 | 0.00 | 1.00 | 1.00 | 76 | 1012.7 |
| 20260903203532 | 84 | 208 | 3.0 | 7.0 | 0.00 | 1.00 | 1.00 | 77 | 1012.8 |
| 20260903203026 | 84 | 229 | 1.0 | 7.0 | 0.00 | 1.00 | 1.00 | 77 | 1012.8 |
| 20260903202529 | 83 | 182 | 2.0 | 8.0 | 0.00 | 1.00 | 1.00 | 77 | 1012.8 |
| 20260903202026 | 84 | 246 | 0.0 | 0.0 | 0.00 | 1.00 | 1.00 | 76 | 1012.8 |
| 20260903201526 | 84 | 182 | 0.0 | 0.0 | 0.00 | 1.00 | 1.00 | 76 | 1012.8 |
| 20260903201025 | 84 | 223 | 0.0 | 0.0 | 0.00 | 1.00 | 1.00 | 76 | 1012.9 |
| 20260903200526 | 84 | 237 | 0.0 | 0.0 | 0.00 | 1.00 | 1.00 | 76 | 1012.9 |
| 20260903200024 | 84 | 232 | 0.0 | 0.0 | 0.00 | 1.00 | 1.00 | 76 | 1013.0 |
| 20260903195522 | 84 | 307 | 0.0 | 0.0 | 0.00 | 1.02 | 1.00 | 76 | 1013.1 |
| 20260903195021 | 84 | 226 | 0.0 | 0.0 | 0.00 | 1.02 | 1.00 | 76 | 1013.3 |
| 20260903194527 | 84 | 253 | 0.0 | 0.0 | 0.00 | 1.02 | 1.00 | 76 | 1013.4 |
| 20260903194120 | 84 | 230 | 0.0 | 0.0 | 0.00 | 1.02 | 1.00 | 76 | 1013.6 |
| 20260903193519 | 84 | 236 | 0.0 | 0.0 | 0.00 | 1.02 | 1.00 | 76 | 1013.6 |
| 20260903193019 | 84 | 308 | 0.0 | 0.0 | 0.00 | 1.02 | 1.00 | 77 | 1013.5 |
| 20260903192518 | 84 | 225 | 0.0 | 0.0 | 0.00 | 1.02 | 1.00 | 76 | 1013.6 |